Location: 81360 Arifat, France
(43.7204°N, 2.3408°E)
Time: 23:05:55
(UTC+01:00)

Vanguard 2 Rocket - All Passes

Search period start: 05 December 2025 00:00
Search period end: 15 December 2025 00:00
Orbit: 554 x 3287 km, 32.9° (Epoch: 04 December)

Date Brightness Start Highest point End Pass type
(mag) Time Alt. Az. Time Alt. Az. Time Alt. Az.
05 Dec - 09:09:01 10° S 09:18:39 18° SSE 09:26:18 10° ESE daylight
05 Dec - 11:20:17 10° SW 11:33:05 33° SSE 11:41:17 10° ESE daylight
05 Dec - 13:35:58 10° WSW 13:46:41 41° S 13:53:05 10° ESE daylight
05 Dec - 15:52:26 10° WSW 15:58:54 26° SSW 16:03:19 10° SSE daylight
06 Dec - 08:06:49 10° SSE 08:12:40 12° SE 08:17:56 10° ESE daylight
06 Dec - 10:14:00 10° SSW 10:27:21 30° SSE 10:36:31 10° ESE daylight
06 Dec - 12:28:51 10° WSW 12:41:32 42° S 12:49:08 10° ESE daylight
06 Dec - 14:45:31 10° WSW 14:54:29 36° SSW 15:00:02 10° SE daylight
06 Dec - 17:03:05 10° WSW 17:05:50 13° SW 17:08:10 10° S daylight
07 Dec - 09:08:27 10° SSW 09:21:22 25° SSE 09:31:04 10° ESE daylight
07 Dec - 11:21:46 10° SW 11:36:01 40° SSE 11:44:52 10° ESE daylight
07 Dec - 13:38:19 10° WSW 13:49:42 43° S 13:56:24 10° ESE daylight
07 Dec - 15:55:26 10° WSW 16:01:46 23° SSW 16:06:11 10° SSE daylight
08 Dec - 08:04:08 10° S 08:15:16 19° SE 08:24:29 10° ESE daylight
08 Dec - 10:15:00 10° SW 10:30:09 37° SSE 10:40:14 10° E daylight
08 Dec - 12:30:56 10° WSW 12:44:30 46° S 12:52:29 10° ESE daylight
08 Dec - 14:48:11 10° W 14:57:24 34° SSW 15:03:08 10° SE daylight
09 Dec - 07:02:25 10° SSE 07:09:09 13° SE 07:15:21 10° ESE visible
09 Dec - 09:08:49 10° SSW 09:24:00 32° SSE 09:35:04 10° E daylight
09 Dec - 11:23:32 10° WSW 11:38:53 46° S 11:48:17 10° ESE daylight
09 Dec - 13:40:45 10° WSW 13:52:37 43° SSW 13:59:37 10° SE daylight
09 Dec - 15:58:36 10° WSW 16:04:28 19° SW 16:08:44 10° S daylight
10 Dec - 08:03:35 10° SSW 08:17:44 26° SSE 08:29:06 10° E daylight
10 Dec - 10:16:23 10° SW 10:32:53 43° SSE 10:43:42 10° E daylight
10 Dec - 12:33:08 10° WSW 12:47:23 49° S 12:55:46 10° ESE daylight
10 Dec - 14:50:55 10° W 15:00:10 30° SSW 15:06:03 10° SSE daylight
11 Dec - 06:59:48 10° S 07:11:28 19° SE 07:21:48 10° ESE visible
11 Dec - 09:09:47 10° SW 09:26:34 39° SSE 09:38:39 10° E daylight
11 Dec - 11:25:29 10° WSW 11:41:40 50° S 11:51:33 10° ESE daylight
11 Dec - 13:43:13 10° W 13:55:25 41° SSW 14:02:42 10° SE daylight
11 Dec - 16:02:08 10° WSW 16:07:00 15° SW 16:10:47 10° S daylight
12 Dec - 05:59:13 10° SSE 06:05:21 12° SE 06:11:15 10° ESE visible
12 Dec - 08:03:59 10° SSW 08:20:06 33° SSE 08:32:58 10° E daylight
12 Dec - 10:18:04 10° SW 10:35:32 49° S 10:46:59 10° E daylight
12 Dec - 12:35:24 10° WSW 12:50:10 49° S 12:58:54 10° ESE daylight
12 Dec - 14:53:44 10° W 15:02:46 26° SW 15:08:44 10° SSE daylight
13 Dec - 06:59:16 10° S 07:13:39 26° SE 07:26:20 10° E visible
13 Dec - 09:11:09 10° SW 09:29:03 45° SSE 09:41:59 10° E daylight
13 Dec - 11:27:35 10° WSW 11:44:23 53° S 11:54:44 10° ESE daylight
13 Dec - 13:45:44 10° W 13:58:05 38° SSW 14:05:37 10° SE daylight
13 Dec - 16:06:31 10° WSW 16:09:21 12° SW 16:11:50 10° SSW daylight
14 Dec - 05:56:14 10° S 06:07:24 18° SE 06:18:06 10° ESE visible
14 Dec - 08:04:58 10° SW 08:22:24 39° SSE 08:36:26 10° E daylight
14 Dec - 10:19:59 10° WSW 10:38:08 53° S 10:50:09 10° ESE daylight
14 Dec - 12:37:44 10° W 12:52:50 47° SSW 13:01:56 10° SE daylight
14 Dec - 14:56:44 10° W 15:05:11 22° SW 15:11:03 10° S daylight
